Lampang, Thailand

7:45 AM ICT on January 19, 2017 (GMT +0700)
Lampang

Weather History for VTCL - January, 2014

Change the Weather History Date:

Wednesday, January 8, 2014

  Actual Average (VTCC) Record (VTCC)
Temperature  
Mean Temperature 74 °F -  
Max Temperature 90 °F 88 °F 88 °F (2016)
Min Temperature 57 °F 58 °F 55 °F (1997)
Cooling Degree Days 8    
Growing Degree Days 24 (Base 50)    
Moisture  
Dew Point 61 °F    
Average Humidity 67    
Maximum Humidity 100    
Minimum Humidity 27    
Precipitation  
Precipitation 0.00 in 0.01 in - ()
Sea Level Pressure  
Sea Level Pressure 29.95 in    
Wind  
Wind Speed 1 mph ()    
Max Wind Speed 5 mph    
Max Gust Speed -    
Visibility 3.5 miles    
Events      
Averages and records for this station are not official NWS values.
T = Trace of Precipitation, MM = Missing Value Source: Averaged Metar Reports

Daily Weather History Graph

Daily Weather History Graph

Search for Another Location

Airport or City:

Trip Planner

Search our weather history database for the weather conditions in past years. The results will help you decide how hot, cold, wet, or windy it might be!

Date:

Astronomy

Jan. 08, 2014 Rise Set
Actual Time 6:55 AM ICT 6:01 PM ICT
Civil Twilight 6:32 AM ICT 6:24 PM ICT
Nautical Twilight 6:05 AM ICT 6:51 PM ICT
Astronomical Twilight 5:38 AM ICT 7:18 PM ICT
Moon 12:06 PM ICT (1/8) 12:02 AM ICT (1/8)
Length of Visible Light 11h 52m
Length of Day
11h 05m
Waxing Crescent, 50% of the Moon is Illuminated
Jan 8
Waxing Crescent
Jan 16
Full
Jan 24
Last Quarter
Jan 31
New
Feb 7
First Quarter

Hourly Weather History & Observations

Time (ICT) Temp. Heat Index Dew Point Humidity Pressure Visibility Wind Dir Wind Speed Gust Speed Precip Events Conditions
1:00 AM 65 °F - 63 °F 89% 29.91 in 5 mi Calm Calm - -   Mist
4:00 AM 61 °F - 59 °F 92% 29.93 in 4 mi Calm Calm - -   Mist
6:00 AM 57.2 °F - 57.2 °F 100% 29.95 in 1.9 mi SE 2.3 mph - N/A   Partly Cloudy
7:00 AM 59 °F - 58 °F 94% 29.99 in 3 mi Calm Calm - -   Mist
7:00 AM 57.2 °F - 55.4 °F 94% 29.98 in 1.9 mi Calm Calm - N/A   Partly Cloudy
8:00 AM 59.0 °F - 59.0 °F 100% 30.01 in 1.6 mi Variable 1.2 mph - N/A   Partly Cloudy
9:00 AM 66.2 °F - 62.6 °F 88% 30.04 in 1.9 mi SSW 3.5 mph - N/A   Partly Cloudy
10:00 AM 70 °F - 62 °F 70% 30.06 in 4 mi Calm Calm - -   Mist
10:00 AM 80.6 °F 81.5 °F 60.8 °F 51% 30.04 in 2.5 mi Variable 2.3 mph - N/A   Mist
12:00 PM 78.8 °F - 62.6 °F 57% 30.01 in 2.5 mi Variable 3.5 mph - N/A   Haze
1:00 PM 84 °F - 63 °F 39% 29.95 in 4 mi Calm Calm - -   Haze
1:00 PM 82.4 °F 83.4 °F 62.6 °F 51% 29.95 in 3.1 mi NW 3.5 mph - N/A   Haze
2:00 PM 84.2 °F 85.0 °F 62.6 °F 48% 29.92 in 3.1 mi West 4.6 mph - N/A   Haze
4:00 PM 89 °F - 59 °F 27% 29.85 in 6 mi Calm Calm - -  
4:00 PM 87.8 °F 87.6 °F 60.8 °F 40% 29.86 in - Variable 2.3 mph - N/A   Clear
5:00 PM 86.0 °F 85.4 °F 59.0 °F 40% 29.86 in - East 3.5 mph - N/A   Clear
6:00 PM 78.8 °F - 66.2 °F 65% 29.86 in - Variable 2.3 mph - N/A   Clear
7:00 PM 76 °F - 62 °F 53% 29.86 in 6 mi Calm Calm - -  
10:00 PM 67 °F - 61 °F 76% 29.97 in 6 mi Calm Calm - -